This is the latest recevied weather packets stored in our database for station/object F5LKO-13. If no packets are shown the sender has not sent any weather packets the latest 1 day(s).
| Time | Temp. | Humidity | Pressure | Rain* | Wind** | Luminosity | Snow |
|---|---|---|---|---|---|---|---|
| 1778105950 | 9.44° C | 99% | 1016.6 hPa | 0 mm | - | 0 W/m² | - |
| 1778105338 | 9.44° C | 99% | 1016.7 hPa | 0 mm | - | 0 W/m² | - |
| 1778105032 | 9.44° C | 99% | 1016.7 hPa | 0 mm | - | 0 W/m² | - |
| 1778104113 | 10° C | 99% | 1016.7 hPa | 0 mm | - | 0 W/m² | - |
| 1778103807 | 10° C | 99% | 1016.7 hPa | 0 mm | - | 0 W/m² | - |
| 1778103503 | 10° C | 99% | 1016.8 hPa | 0 mm | - | 0 W/m² | - |
| 1778102591 | 10° C | 99% | 1016.8 hPa | 0 mm | - | 0 W/m² | - |
| 1778101052 | 11.11° C | 99% | 1016.8 hPa | 0 mm | - | 0 W/m² | - |
| 1778099828 | 11.67° C | 99% | 1016.8 hPa | 0 mm | - | 0 W/m² | - |
| 1778099522 | 11.67° C | 99% | 1016.8 hPa | 0 mm | - | 0 W/m² | - |
| 1778099216 | 11.67° C | 99% | 1016.7 hPa | 0 mm | - | 0 W/m² | - |
| 1778097081 | 13.33° C | 99% | 1016.4 hPa | 0 mm | - | 0 W/m² | - |
| 1778096766 | 13.33° C | 99% | 1016.2 hPa | 0 mm | - | 0 W/m² | - |
| 1778096155 | 13.33° C | 99% | 1016.1 hPa | 0 mm | - | 0 W/m² | - |
| 1778095849 | 13.89° C | 99% | 1016.1 hPa | 0 mm | - | 0 W/m² | - |
| 1778095543 | 13.89° C | 99% | 1016 hPa | 0 mm | - | 0 W/m² | - |
| 1778094931 | 13.89° C | 99% | 1015.9 hPa | 0 mm | - | 0 W/m² | - |
| 1778094319 | 14.44° C | 99% | 1015.9 hPa | 0 mm | - | 0 W/m² | - |
| 1778093706 | 14.44° C | 99% | 1015.8 hPa | 0 mm | - | 0 W/m² | - |
| 1778090951 | 15.56° C | 99% | 1015.6 hPa | 0 mm | - | 0 W/m² | - |
| 1778090645 | 15.56° C | 99% | 1015.7 hPa | 0 mm | - | 0 W/m² | - |
| 1778090032 | 16.11° C | 99% | 1015.5 hPa | 0 mm | - | 0 W/m² | - |
| 1778089114 | 16.67° C | 99% | 1015.5 hPa | 0 mm | - | 0 W/m² | - |
| 1778088808 | 16.67° C | 99% | 1015.5 hPa | 0 mm | - | 1 W/m² | - |
| 1778088502 | 16.67° C | 99% | 1015.6 hPa | 0 mm | - | 1 W/m² | - |
* Rain latest hour (hover to see other rain measurements)
** Current wind speed in m/s (hover to see current wind gust speed)